OPS 4029

operational
NORAD ID: 12930 Int'l Des: 1981-107 Owner: NRO/SAFSP Country: US
MEOELLIPTICAL

OPS 4029について

説明を読み込み中...

リアルタイム位置

3D地球を読み込み中...

次回通過

高度履歴

Altitude vs Time

uPlot chart will show altitude changes over time

軌道要素

1 12930U 81107A 26062.52354020 .00000036 00000-0 00000-0 0 9998
2 12930 5.5867 0.7647 1038677 42.8757 350.1931 1.00375439 6816
Epoch: Mar 3, 2026 • Age: 29 hours

現在のステータス

高度 38524.3 km
速度 2.88 km/s
衛星直下点 -5.57°S, 35.3°E
打ち上げ日 Oct 31, 1981
運用期間 44.3 years
タイプ other

技術仕様

分類 Payload
質量 1000.00 kg
乾燥質量 900.00 kg
総質量 1000.00 kg
長さ 6.00 m
直径 2.50 m
スパン 30.00 m
形状 Box + 2 Pan + Dish
製造者 TRW
バスタイプ Vortex
フェーズステータス Unknown Transfer Status
所有者/国 NRO/SAFSP/US

大規模コンステレーション

Loading constellations...